Provo, UT

4:03 PM MST on November 13, 2019 (GMT -0700)
Provo Municipal

Weather History for KPVU - September, 2019

Change the Weather History Date:

Thursday, September 5, 2019

  Actual Average Record
Temperature  
Mean Temperature 78 °F -  
Max Temperature 93 °F 79 °F 93 °F (2017)
Min Temperature 66 °F 51 °F 39 °F (2004)
Cooling Degree Days 14    
Growing Degree Days 28 (Base 50)    
Moisture  
Dew Point 52 °F    
Average Humidity 44    
Maximum Humidity 61    
Minimum Humidity 23    
Precipitation  
Precipitation 0.00 in - - ()
Sea Level Pressure  
Sea Level Pressure 30.03 in    
Wind  
Wind Speed 7 mph (SSW)    
Max Wind Speed 21 mph    
Max Gust Speed 29 mph    
Visibility 10 miles    
Events Rain    
Averages and records for this station are not official NWS values.
T = Trace of Precipitation, MM = Missing Value Source: NWS Daily Summary

Daily Weather History Graph

Daily Weather History Graph

Search for Another Location

Airport or City:

Astronomy

Sep. 05, 2019 Rise Set
Actual Time 6:58 AM MDT 7:52 PM MDT
Civil Twilight 6:30 AM MDT 8:19 PM MDT
Nautical Twilight 5:57 AM MDT 8:52 PM MDT
Astronomical Twilight 5:23 AM MDT 9:26 PM MDT
Moon 2:09 PM MDT (9/5) No Moon Set
Length of Visible Light 13h 49m
Length of Day
12h 54m
Waxing Crescent, 46% of the Moon is Illuminated
Sep 5
Waxing Crescent
Sep 5
First Quarter
Sep 13
Full
Sep 21
Last Quarter
Sep 28
New

Hourly Weather History & Observations

Time (MDT) Temp. Heat Index Dew Point Humidity Pressure Visibility Wind Dir Wind Speed Gust Speed Precip Events Conditions
12:56 AM 72.0 °F - 51.1 °F 48% 30.00 in 10.0 mi SE 9.2 mph - N/A   Clear
1:56 AM 70.0 °F - 52.0 °F 53% 30.01 in 10.0 mi SSE 4.6 mph - N/A   Clear
2:56 AM 70.0 °F - 50.0 °F 49% 30.01 in 10.0 mi Calm Calm - N/A   Clear
3:56 AM 69.1 °F - 50.0 °F 51% 29.99 in 10.0 mi SE 3.5 mph - N/A   Clear
4:56 AM 66.9 °F - 51.1 °F 57% 29.99 in 10.0 mi ESE 5.8 mph - N/A   Clear
5:56 AM 66.0 °F - 51.1 °F 59% 30.00 in 10.0 mi NW 5.8 mph - N/A   Clear
6:56 AM 66.0 °F - 51.1 °F 59% 30.03 in 10.0 mi ESE 4.6 mph - N/A   Scattered Clouds
7:56 AM 70.0 °F - 52.0 °F 53% 30.06 in 10.0 mi Calm Calm - N/A   Scattered Clouds
8:56 AM 73.0 °F - 50.0 °F 44% 30.07 in 10.0 mi South 9.2 mph - N/A   Scattered Clouds
9:56 AM 79.0 °F - 50.0 °F 36% 30.07 in 10.0 mi SE 4.6 mph - N/A   Clear
10:56 AM 81.0 °F 80.4 °F 53.1 °F 38% 30.07 in 9.0 mi WSW 3.5 mph - N/A   Clear
11:56 AM 84.9 °F - 51.1 °F 31% 30.05 in 10.0 mi West 5.8 mph - N/A   Scattered Clouds
12:56 PM 84.9 °F 83.6 °F 55.0 °F 36% 30.04 in 10.0 mi WNW 5.8 mph - N/A   Scattered Clouds
1:56 PM 88.0 °F 86.1 °F 55.0 °F 32% 30.03 in 10.0 mi WSW 5.8 mph - N/A   Scattered Clouds
2:56 PM 90.0 °F - 48.9 °F 24% 30.00 in 10.0 mi West 5.8 mph - N/A   Scattered Clouds
3:56 PM 91.0 °F - 48.0 °F 23% 29.97 in 10.0 mi West 5.8 mph - N/A   Scattered Clouds
4:56 PM 89.1 °F - 48.9 °F 25% 29.96 in 10.0 mi SSE 17.3 mph - N/A   Mostly Cloudy
5:56 PM 86.0 °F 84.0 °F 53.1 °F 32% 29.96 in 10.0 mi South 10.4 mph - N/A   Mostly Cloudy
6:56 PM 82.0 °F - 52.0 °F 35% 29.98 in 10.0 mi South 20.7 mph 28.8 mph N/A   Mostly Cloudy
7:56 PM 81.0 °F - 51.1 °F 35% 30.03 in 10.0 mi NNE 8.1 mph 24.2 mph 0.00 in   Overcast
8:56 PM 73.0 °F - 59.0 °F 61% 30.10 in 10.0 mi North 15.0 mph 21.9 mph 0.00 in Rain Light Rain
9:56 PM 73.9 °F - 54.0 °F 50% 30.06 in 10.0 mi North 3.5 mph - 0.00 in   Clear
10:56 PM 73.9 °F - 59.0 °F 59% 30.08 in 10.0 mi North - - N/A   Clear
11:56 PM 72.0 °F - 57.9 °F 61% 30.07 in 10.0 mi North - - N/A   Clear